Change the Weather History Date:

Wednesday, November 27, 2013

  Actual Average Record
Temperature  
Mean Temperature 48 °F -  
Max Temperature 62 °F 48 °F 69 °F (2011)
Min Temperature 33 °F 34 °F 28 °F (1996)
Degree Days  
Heating Degree Days 18    
Moisture  
Dew Point 41 °F    
Average Humidity 78    
Maximum Humidity 88    
Minimum Humidity 48    
Precipitation  
Precipitation 1.14 in - - ()
Sea Level Pressure  
Sea Level Pressure 29.49 in    
Wind  
Wind Speed 17 mph (West)    
Max Wind Speed 23 mph    
Max Gust Speed 38 mph    
Visibility 9 miles    
Events      
Averages and records for this station are not official NWS values.
T = Trace of Precipitation, MM = Missing Value Source: NWS Daily Summary

Daily Weather History Graph

Daily Weather History Graph

Search for Another Location

Airport or City:

Trip Planner

Search our weather history database for the weather conditions in past years. The results will help you decide how hot, cold, wet, or windy it might be!

Date:

Astronomy

Nov. 27, 2013 Rise Set
Actual Time 6:55 AM EST 4:32 PM EST
Civil Twilight 6:25 AM EST 5:02 PM EST
Nautical Twilight 5:52 AM EST 5:35 PM EST
Astronomical Twilight 5:19 AM EST 6:08 PM EST
Moon 12:54 AM EST (11/27) 1:08 PM EST (11/27)
Length of Visible Light 10h 36m
Length of Day
9h 36m
Waning Crescent, 32% of the Moon is Illuminated
Nov 27
Waning Crescent
Dec 2
New
Dec 9
First Quarter
Dec 17
Full
Dec 25
Last Quarter

Hourly Weather History & Observations

Time (EST) Temp. Windchill Dew Point Humidity Pressure Visibility Wind Dir Wind Speed Gust Speed Precip Events Conditions
12:15 AM 55.4 °F - 51.8 °F 88% 29.70 in 5.0 mi ESE 21.9 mph 33.4 mph 0.03 in   Overcast
12:35 AM 55.4 °F - 51.8 °F 88% 29.67 in 5.0 mi SE 17.3 mph 27.6 mph 0.10 in   Overcast
12:55 AM 55.4 °F - 51.8 °F 88% 29.64 in 5.0 mi ESE 19.6 mph 33.4 mph 0.16 in   Overcast
1:15 AM 57.2 °F - 53.6 °F 88% 29.62 in 5.0 mi SE 17.3 mph 34.5 mph 0.07 in   Overcast
1:35 AM 57.2 °F - 53.6 °F 88% 29.59 in 6.0 mi SE 20.7 mph 31.1 mph 0.12 in   Overcast
1:55 AM 57.2 °F - 53.6 °F 88% 29.57 in 5.0 mi SSE 21.9 mph 34.5 mph 0.18 in   Overcast
2:15 AM 59.0 °F - 55.4 °F 88% 29.54 in 5.0 mi SSE 20.7 mph 31.1 mph 0.09 in   Overcast
2:35 AM 59.0 °F - 55.4 °F 88% 29.51 in 6.0 mi SSE 23.0 mph 36.8 mph 0.19 in   Overcast
2:55 AM 59.0 °F - 55.4 °F 88% 29.50 in 7.0 mi SSE 18.4 mph 31.1 mph 0.26 in   Overcast
3:15 AM 59.0 °F - 55.4 °F 88% 29.48 in 5.0 mi South 21.9 mph 31.1 mph 0.04 in   Overcast
3:35 AM 60.8 °F - 55.4 °F 82% 29.46 in 6.0 mi South 21.9 mph 38.0 mph 0.04 in   Overcast
3:55 AM 60.8 °F - 55.4 °F 82% 29.45 in 7.0 mi South 20.7 mph 27.6 mph 0.11 in   Overcast
4:15 AM 60.8 °F - 55.4 °F 82% 29.43 in 5.0 mi South 23.0 mph 32.2 mph 0.06 in   Overcast
4:35 AM 60.8 °F - 55.4 °F 82% 29.43 in 4.0 mi South 19.6 mph 35.7 mph 0.07 in   Overcast
4:55 AM 60.8 °F - 55.4 °F 82% 29.41 in 3.0 mi South 19.6 mph 32.2 mph 0.08 in   Overcast
5:15 AM 60.8 °F - 55.4 °F 82% 29.40 in 4.0 mi South 20.7 mph 29.9 mph 0.02 in   Overcast
5:35 AM 60.8 °F - 57.2 °F 88% 29.40 in 5.0 mi South 18.4 mph 25.3 mph 0.03 in   Overcast
5:55 AM 60.8 °F - 57.2 °F 88% 29.40 in 8.0 mi South 16.1 mph 28.8 mph 0.05 in   Overcast
6:15 AM 62.6 °F - 59.0 °F 88% 29.40 in 4.0 mi SSW 18.4 mph 27.6 mph N/A   Overcast
6:35 AM 62.6 °F - 59.0 °F 88% 29.39 in 7.0 mi SSW 15.0 mph 23.0 mph N/A   Overcast
6:55 AM 60.8 °F - 55.4 °F 82% 29.41 in 10.0 mi WSW 11.5 mph - N/A   Overcast
7:15 AM 60.8 °F - 55.4 °F 82% 29.40 in 9.0 mi SW 10.4 mph - 0.01 in   Overcast
7:35 AM 60.8 °F - 55.4 °F 82% 29.41 in 10.0 mi WSW 8.1 mph - 0.01 in   Overcast
7:55 AM 57.2 °F - 53.6 °F 88% 29.42 in 10.0 mi West 11.5 mph 24.2 mph 0.01 in   Overcast
8:15 AM 55.4 °F - 48.2 °F 77% 29.42 in 10.0 mi West 10.4 mph - N/A   Overcast
8:35 AM 53.6 °F - 48.2 °F 82% 29.44 in 9.0 mi West 13.8 mph 21.9 mph 0.02 in   Overcast
8:55 AM 51.8 °F - 46.4 °F 82% 29.44 in 10.0 mi West 10.4 mph 17.3 mph 0.05 in   Mostly Cloudy
9:15 AM 51.8 °F - 46.4 °F 82% 29.41 in 10.0 mi West 8.1 mph - 0.04 in   Overcast
9:35 AM 51.8 °F - 46.4 °F 82% 29.41 in 10.0 mi West 6.9 mph - 0.05 in   Mostly Cloudy
9:55 AM 51.8 °F - 46.4 °F 82% 29.41 in 10.0 mi West 9.2 mph - 0.08 in   Overcast
10:15 AM 51.8 °F - 46.4 °F 82% 29.40 in 10.0 mi West 9.2 mph - 0.02 in   Overcast
10:35 AM 50.0 °F - 44.6 °F 82% 29.38 in 10.0 mi WNW 12.7 mph - 0.02 in   Overcast
10:55 AM 48.2 °F - 42.8 °F 82% 29.38 in 10.0 mi WNW 13.8 mph 18.4 mph 0.02 in   Overcast
11:15 AM 48.2 °F - 42.8 °F 82% 29.38 in 10.0 mi WNW 12.7 mph 21.9 mph 0.01 in   Overcast
11:35 AM 48.2 °F - 42.8 °F 82% 29.40 in 10.0 mi WNW 17.3 mph 20.7 mph 0.02 in   Overcast
11:55 AM 46.4 °F 41.1 °F 42.8 °F 87% 29.39 in 10.0 mi NW 11.5 mph - 0.02 in   Overcast
12:15 PM 46.4 °F 40.7 °F 41.0 °F 81% 29.39 in 10.0 mi WNW 12.7 mph 20.7 mph N/A   Overcast
12:35 PM 44.6 °F 37.4 °F 39.2 °F 81% 29.37 in 10.0 mi NW 16.1 mph 21.9 mph N/A   Overcast
12:55 PM 44.6 °F 36.9 °F 37.4 °F 76% 29.37 in 10.0 mi NW 18.4 mph 26.5 mph N/A   Overcast
1:15 PM 44.6 °F 38.1 °F 37.4 °F 76% 29.40 in 10.0 mi WNW 13.8 mph 18.4 mph N/A   Overcast
1:35 PM 42.8 °F 36.2 °F 37.4 °F 81% 29.39 in 10.0 mi WNW 12.7 mph - 0.02 in   Overcast
1:55 PM 42.8 °F 35.4 °F 35.6 °F 76% 29.36 in 10.0 mi NNW 15.0 mph - 0.03 in   Overcast
2:15 PM 41.0 °F 33.5 °F 35.6 °F 81% 29.38 in 10.0 mi NW 13.8 mph 21.9 mph N/A   Overcast
2:35 PM 41.0 °F 33.1 °F 35.6 °F 81% 29.36 in 10.0 mi NW 15.0 mph 20.7 mph 0.03 in   Overcast
2:55 PM 39.2 °F 31.6 °F 33.8 °F 81% 29.39 in 10.0 mi WNW 12.7 mph 17.3 mph 0.03 in   Overcast
3:15 PM 39.2 °F 30.8 °F 33.8 °F 81% 29.40 in 10.0 mi NW 15.0 mph - 0.02 in   Overcast
3:35 PM 39.2 °F 29.8 °F 33.8 °F 81% 29.37 in 10.0 mi NW 18.4 mph - 0.04 in   Mostly Cloudy
3:55 PM 39.2 °F 30.2 °F 33.8 °F 81% 29.38 in 10.0 mi NW 17.3 mph 21.9 mph 0.04 in   Mostly Cloudy
4:15 PM 39.2 °F 30.5 °F 33.8 °F 81% 29.34 in 9.0 mi NNW 16.1 mph 23.0 mph 0.01 in   Mostly Cloudy
4:35 PM 39.2 °F 30.2 °F 32.0 °F 75% 29.40 in 10.0 mi WNW 17.3 mph 24.2 mph 0.02 in   Overcast
4:55 PM 39.2 °F 30.5 °F 32.0 °F 75% 29.41 in 10.0 mi WNW 16.1 mph 25.3 mph 0.02 in   Overcast
5:15 PM 39.2 °F 29.0 °F 32.0 °F 75% 29.44 in 10.0 mi WNW 21.9 mph 28.8 mph N/A   Overcast
5:35 PM 37.4 °F 28.2 °F 32.0 °F 81% 29.48 in 10.0 mi WNW 16.1 mph 28.8 mph N/A   Overcast
5:55 PM 37.4 °F 26.9 °F 30.2 °F 75% 29.51 in 10.0 mi WNW 20.7 mph 28.8 mph N/A   Overcast
6:15 PM 37.4 °F 27.8 °F 30.2 °F 75% 29.51 in 10.0 mi WNW 17.3 mph 32.2 mph N/A   Overcast
6:35 PM 37.4 °F 27.5 °F 30.2 °F 75% 29.54 in 10.0 mi WNW 18.4 mph 28.8 mph N/A   Overcast
6:55 PM 37.4 °F 26.9 °F 30.2 °F 75% 29.55 in 10.0 mi WNW 20.7 mph 24.2 mph N/A   Overcast
7:15 PM 35.6 °F 24.8 °F 30.2 °F 81% 29.55 in 10.0 mi WNW 19.6 mph 25.3 mph N/A   Overcast
7:35 PM 35.6 °F 26.2 °F 28.4 °F 75% 29.57 in 10.0 mi WNW 15.0 mph 20.7 mph N/A   Mostly Cloudy
7:55 PM 35.6 °F 26.2 °F 28.4 °F 75% 29.58 in 10.0 mi WNW 15.0 mph 21.9 mph N/A   Mostly Cloudy
8:15 PM 37.4 °F 28.9 °F 28.4 °F 70% 29.60 in 10.0 mi West 13.8 mph 19.6 mph N/A   Overcast
8:35 PM 37.4 °F 28.2 °F 28.4 °F 70% 29.60 in 10.0 mi WNW 16.1 mph 23.0 mph N/A   Overcast
8:55 PM 37.4 °F 27.8 °F 28.4 °F 70% 29.60 in 10.0 mi WNW 17.3 mph 26.5 mph N/A   Overcast
9:15 PM 37.4 °F 27.5 °F 26.6 °F 65% 29.64 in 10.0 mi WNW 18.4 mph 28.8 mph N/A   Overcast
9:35 PM 35.6 °F 25.2 °F 24.8 °F 65% 29.65 in 10.0 mi WNW 18.4 mph 33.4 mph N/A   Overcast
9:55 PM 35.6 °F 26.2 °F 21.2 °F 56% 29.67 in 10.0 mi WNW 15.0 mph 34.5 mph N/A   Overcast
10:15 PM 35.6 °F 24.0 °F 21.2 °F 56% 29.69 in 10.0 mi WNW 23.0 mph 34.5 mph N/A   Overcast
10:35 PM 35.6 °F 24.5 °F 19.4 °F 52% 29.71 in 10.0 mi WNW 20.7 mph 33.4 mph N/A   Mostly Cloudy
10:55 PM 35.6 °F 25.2 °F 17.6 °F 48% 29.72 in 10.0 mi WNW 18.4 mph 32.2 mph N/A   Partly Cloudy
11:15 PM 35.6 °F 25.9 °F 17.6 °F 48% 29.74 in 10.0 mi West 16.1 mph 31.1 mph N/A   Clear
11:35 PM 33.8 °F 23.5 °F 17.6 °F 52% 29.76 in 10.0 mi WNW 16.1 mph 27.6 mph N/A   Clear
11:55 PM 33.8 °F 23.5 °F 15.8 °F 48% 29.78 in 10.0 mi West 16.1 mph 25.3 mph N/A   Clear